Wind_Speed
15 16 17 15 14 13 13 13 14 14 14 13 13 13 13 13 12 12 12 13 13 13 14 15 15 16 16 16 16 17 17 18 19 19 19 19 20 19 20 20 21 22 22
16 17 16 15 14 13 13 13 13 14 14 13 13 13 13 13 12 12 12 13 13 13 14 15 15 16 17 17 17 17 17 17 18 18 18 19 20 19 19 20 21 21 21
15 16 15 14 13 13 13 13 13 13 13 13 13 13 13 12 13 13 13 13 13 14 15 16 15 16 17 17 17 17 17 17 17 18 18 18 19 19 20 20 19 20 20
15 15 14 13 12 11 12 13 13 13 12 12 12 13 12 13 13 13 13 13 14 15 16 16 15 16 15 16 16 17 17 18 18 18 18 19 18 19 18 19 19 20 20
15 14 13 13 11 11 11 12 12 12 11 11 11 12 12 12 12 13 13 14 15 15 15 15 15 15 15 16 17 17 18 18 18 18 17 17 17 17 17 17 19 19 19
14 14 13 13 12 12 11 11 11 11 11 11 12 12 13 13 13 14 14 14 15 15 15 15 15 16 16 17 17 17 17 17 17 17 17 17 18 18 18 17 18 18 18
14 15 15 14 14 14 12 11 11 11 12 12 13 13 14 14 14 15 15 15 15 16 16 16 16 16 16 16 17 17 17 17 17 17 17 17 18 18 18 18 19 19 19
15 15 14 14 14 14 13 12 12 12 12 12 13 13 14 15 15 15 15 15 16 16 16 16 16 17 16 17 17 18 18 17 17 17 16 17 18 18 19 19 19 19 20
15 15 14 13 14 14 14 13 13 13 12 13 13 14 14 15 15 15 15 15 16 16 16 17 17 17 17 17 17 17 17 17 17 18 18 18 18 19 19 20 20 21 21
15 15 15 14 13 13 14 14 14 14 13 13 14 15 15 16 16 16 16 15 16 16 16 16 16 16 17 17 16 16 16 17 17 18 19 19 19 19 19 20 21 22 23
15 15 14 14 14 14 14 14 14 14 15 15 15 15 16 16 16 16 16 16 16 16 16 16 16 16 16 17 17 17 17 17 18 18 18 18 17 18 18 19 21 22 23
16 15 15 15 15 14 14 14 15 15 16 16 16 16 16 16 16 16 17 17 16 16 16 16 16 16 17 17 18 18 17 17 16 17 17 16 17 18 19 20 21 22 23
16 16 16 16 15 15 15 15 16 16 16 17 17 17 17 17 17 17 17 16 16 17 17 17 17 17 17 18 17 17 17 18 18 18 18 17 18 18 19 20 20 21 22
16 16 16 16 16 15 15 15 16 16 17 17 18 18 18 18 18 18 17 18 18 19 19 18 17 17 17 17 17 17 19 19 19 20 20 19 19 19 20 21 21 22 22
17 17 17 17 16 15 15 16 16 17 18 19 19 19 20 19 19 18 18 19 19 19 19 18 18 18 18 18 18 18 20 20 21 20 20 20 20 20 21 21 22 22 22
18 18 18 16 15 15 16 16 17 18 19 19 19 20 20 20 19 19 19 19 19 19 19 19 19 19 19 18 19 19 20 21 21 21 21 21 21 22 21 22 22 21 21
18 18 18 17 16 17 17 18 18 19 19 20 20 20 20 20 20 19 19 19 19 19 19 20 20 20 19 20 19 21 21 22 22 22 21 21 22 22 22 22 22 21 21
19 19 19 18 18 18 19 19 20 20 21 20 20 20 20 20 20 19 19 20 20 20 20 20 21 20 21 20 21 21 22 23 23 22 23 23 23 24 23 22 22 21 21
19 19 19 20 20 20 20 20 20 21 21 21 20 20 20 20 19 19 20 20 21 21 21 22 21 21 21 21 22 22 23 23 24 24 24 24 24 24 23 23 22 22 22
20 20 20 21 21 21 20 20 20 20 20 20 19 19 19 19 19 19 20 20 21 21 22 22 22 22 22 23 23 23 23 24 24 25 25 25 25 25 24 23 22 22 22
20 20 20 20 20 20 20 20 20 19 19 19 19 19 19 20 20 20 21 21 21 21 22 22 22 22 22 23 23 23 24 24 25 25 25 24 24 24 23 23 22 22 21
20 20 20 19 20 20 19 20 19 19 19 19 19 19 19 20 21 21 21 21 21 22 22 23 23 22 22 23 23 23 23 24 24 24 24 23 23 23 23 22 22 22 22
21 21 20 20 20 20 20 20 19 19 19 19 20 20 20 21 20 20 20 21 22 22 22 22 22 22 22 23 23 24 24 24 24 23 23 23 24 23 23 23 23 22 22
22 21 21 20 20 21 21 20 20 19 20 21 21 20 20 20 21 21 22 22 22 22 23 23 23 23 23 23 23 23 24 24 24 24 23 24 24 23 23 23 23 22 22
22 22 22 22 22 22 22 21 21 21 22 22 22 21 21 21 21 22 22 22 22 23 23 23 24 24 24 24 24 25 25 24 24 24 24 24 23 23 23 23 23 23 22
23 23 23 23 23 23 22 22 22 23 22 22 22 22 22 22 21 22 22 23 23 23 23 24 24 24 24 25 25 25 24 24 24 24 24 24 23 23 23 22 23 23 23
Wind_Direction
302 303 300 297 296 295 291 288 290 293 295 295 294 291 289 292 292 288 290 292 296 297 293 291 289 289 292 291 289 288 288 286 281 275 274 275 274 271 270 270 271 271 270
302 304 301 300 294 292 292 293 294 293 295 297 297 294 293 292 292 292 292 298 298 300 301 296 292 293 294 296 293 292 292 291 288 284 280 278 277 273 273 272 271 270 268
302 305 305 301 298 290 287 291 294 294 296 297 297 296 295 294 292 292 296 298 298 298 299 297 294 296 296 298 296 292 293 293 291 287 284 284 281 277 276 274 271 267 267
298 301 302 302 300 294 291 291 293 294 295 294 297 300 298 294 293 294 294 295 296 297 299 297 296 297 299 301 300 295 293 294 293 289 286 285 284 280 276 275 274 270 267
293 297 301 299 299 298 297 294 291 293 295 298 301 305 302 298 296 295 295 295 297 301 301 300 302 303 302 301 301 296 293 294 292 291 289 286 285 284 281 280 277 274 271
292 292 296 295 296 299 300 300 300 296 294 295 298 303 304 303 301 299 301 301 301 302 303 303 304 305 304 302 301 299 296 294 293 291 290 289 287 285 285 281 279 276 276
293 289 288 289 290 293 296 298 299 296 293 293 293 296 300 301 302 303 301 301 302 301 303 306 306 306 307 305 302 300 300 297 292 289 289 288 291 290 286 284 282 279 280
290 291 291 287 286 286 286 290 296 296 294 294 293 295 298 299 301 303 303 303 303 303 303 306 309 309 307 308 307 307 306 302 298 294 291 288 290 291 289 288 285 282 280
297 297 295 289 287 285 287 290 294 294 292 296 298 299 301 302 303 305 305 305 307 307 305 305 308 310 311 312 312 310 308 306 302 297 294 292 291 292 291 288 286 284 281
298 296 293 285 283 284 288 290 292 298 302 301 301 300 302 303 304 305 305 305 307 310 310 311 312 313 315 317 317 315 312 310 308 302 296 292 289 289 290 288 287 286 283
287 285 288 287 282 282 286 289 290 293 297 298 299 300 303 306 307 307 303 303 304 304 307 308 309 312 315 318 317 315 312 312 311 309 306 301 292 293 294 293 291 289 287
285 286 287 288 284 284 287 287 288 291 294 295 295 298 301 304 304 303 302 302 303 303 304 305 307 310 314 315 315 315 315 314 314 314 313 308 304 300 299 297 295 293 291
287 287 286 285 283 282 284 285 287 290 293 295 296 298 300 300 301 300 301 302 304 304 304 305 305 308 311 314 315 316 316 314 313 313 313 311 307 306 304 303 300 297 294
287 284 284 283 285 283 282 284 286 289 293 294 294 294 295 298 299 298 298 301 304 304 303 303 301 302 306 310 311 312 313 313 312 311 312 311 308 306 305 305 303 302 299
283 282 283 284 284 284 284 285 286 288 289 290 293 294 295 297 298 298 298 299 301 301 300 301 300 299 304 307 308 310 313 315 313 311 311 311 308 305 304 303 302 301 300
283 283 282 281 281 282 284 286 286 288 289 291 293 294 295 297 298 298 298 298 299 300 301 298 297 301 304 305 307 310 313 315 314 312 310 308 307 305 303 303 301 300 299
282 284 283 279 280 282 283 284 285 288 290 291 292 293 294 295 296 297 298 300 300 299 300 300 303 303 307 307 307 310 310 312 313 313 312 310 307 306 304 304 302 301 300
281 283 280 279 281 284 284 284 285 286 287 289 291 291 293 294 294 295 296 297 298 298 298 300 303 303 303 304 307 308 309 310 311 311 310 309 309 308 305 304 303 302 302
282 283 282 282 283 283 284 285 285 286 287 288 290 292 293 293 294 295 296 297 297 297 298 298 299 300 300 301 303 306 308 308 308 309 309 308 307 307 308 306 305 304 302
281 281 281 282 284 283 283 284 287 288 288 288 290 292 291 290 291 293 295 297 297 296 297 297 297 298 299 300 301 304 306 306 305 305 306 306 306 306 307 307 306 305 304
278 280 281 282 284 285 285 284 287 288 288 287 288 289 289 289 290 292 294 295 296 296 297 297 298 300 301 300 301 302 304 306 306 306 305 305 306 307 307 306 305 303 303
278 280 282 283 284 286 286 286 286 287 288 288 288 287 287 287 290 292 292 293 294 296 298 298 298 299 300 301 302 303 304 306 307 307 306 307 307 308 307 306 305 304 302
277 278 280 282 284 285 286 287 287 288 288 288 289 288 287 288 290 292 293 293 293 295 296 297 298 299 300 300 301 303 304 305 306 306 306 306 307 308 307 305 304 303 303
275 277 277 279 282 284 285 285 286 287 288 289 290 289 287 287 290 292 292 292 292 293 294 294 295 297 299 299 302 303 304 304 304 304 304 305 306 305 305 305 305 305 304
275 275 275 276 279 280 282 282 283 286 289 288 288 288 285 285 288 291 292 292 292 291 291 292 293 295 298 300 302 304 304 304 305 304 304 305 304 304 304 304 305 306 305
274 274 275 277 279 280 281 281 283 286 288 287 288 288 286 286 287 289 292 293 293 292 292 292 293 294 297 300 302 302 302 302 302 304 304 304 304 303 303 304 305 306 305
Height
5839 5838 5836 5834 5834 5833 5832 5832 5831 5830 5829 5828 5827 5826 5825 5824 5823 5822 5822 5821 5820 5820 5819 5818 5817 5816 5816 5814 5814 5812 5811 5811 5810 5810 5810 5809 5809 5809 5810 5810 5811 5811 5811
5837 5835 5833 5832 5831 5831 5830 5829 5828 5827 5826 5825 5824 5823 5822 5821 5821 5820 5820 5819 5818 5817 5816 5815 5814 5813 5812 5811 5809 5808 5807 5806 5805 5805 5804 5804 5805 5804 5804 5805 5805 5805 5805
5834 5833 5831 5829 5829 5828 5828 5827 5826 5825 5824 5823 5822 5821 5820 5819 5818 5818 5817 5816 5815 5814 5813 5812 5811 5809 5808 5807 5805 5804 5803 5802 5801 5800 5799 5799 5799 5799 5799 5798 5799 5799 5799
5832 5830 5829 5827 5826 5826 5825 5824 5823 5823 5822 5821 5820 5819 5818 5817 5816 5815 5814 5813 5812 5811 5810 5809 5808 5806 5805 5803 5802 5801 5799 5798 5797 5795 5795 5794 5794 5794 5793 5793 5793 5793 5794
5829 5828 5827 5825 5824 5824 5823 5822 5821 5821 5820 5819 5818 5817 5816 5815 5814 5813 5812 5811 5810 5809 5808 5806 5805 5803 5802 5800 5798 5797 5796 5794 5792 5791 5790 5790 5789 5789 5788 5788 5788 5788 5788
5826 5825 5824 5823 5822 5822 5821 5820 5819 5819 5818 5817 5816 5815 5814 5813 5812 5811 5810 5809 5808 5806 5805 5804 5802 5800 5798 5796 5795 5793 5792 5790 5789 5788 5787 5786 5785 5785 5784 5783 5783 5783 5783
5823 5822 5821 5820 5820 5820 5819 5818 5817 5816 5815 5815 5814 5813 5812 5811 5810 5808 5807 5806 5805 5804 5802 5801 5799 5797 5796 5794 5792 5790 5788 5786 5785 5784 5783 5782 5781 5780 5780 5779 5778 5778 5778
5820 5818 5818 5818 5817 5817 5816 5816 5815 5814 5813 5812 5811 5810 5809 5808 5807 5806 5805 5803 5802 5801 5799 5798 5796 5794 5792 5790 5788 5786 5784 5782 5781 5780 5779 5778 5777 5776 5775 5774 5773 5773 5773
5817 5816 5815 5815 5814 5814 5813 5813 5812 5811 5810 5809 5808 5808 5807 5806 5805 5803 5802 5800 5799 5797 5796 5794 5792 5791 5789 5787 5785 5782 5780 5779 5777 5776 5774 5773 5772 5771 5770 5769 5769 5768 5767
5814 5814 5813 5812 5811 5811 5810 5809 5809 5808 5807 5807 5806 5805 5804 5803 5802 5800 5799 5797 5796 5794 5793 5791 5789 5787 5786 5783 5781 5779 5777 5776 5774 5772 5770 5769 5768 5766 5765 5765 5763 5762 5762
5811 5811 5810 5809 5808 5808 5807 5806 5806 5805 5805 5804 5803 5802 5801 5800 5798 5797 5796 5794 5793 5791 5790 5788 5786 5785 5783 5781 5779 5777 5775 5773 5771 5768 5766 5764 5763 5762 5760 5759 5758 5756 5755
5808 5808 5807 5806 5805 5805 5804 5804 5803 5802 5802 5801 5800 5799 5798 5796 5795 5794 5793 5791 5790 5788 5786 5785 5783 5782 5780 5778 5776 5774 5772 5769 5767 5765 5763 5761 5759 5757 5756 5754 5752 5751 5749
5805 5804 5804 5803 5802 5802 5801 5800 5800 5799 5798 5797 5796 5795 5794 5793 5792 5790 5789 5787 5786 5784 5783 5781 5780 5778 5777 5775 5773 5771 5769 5766 5764 5762 5760 5757 5755 5753 5751 5749 5747 5745 5743
5801 5800 5800 5799 5799 5798 5797 5797 5796 5795 5795 5794 5793 5792 5790 5789 5788 5786 5785 5783 5782 5780 5779 5777 5776 5774 5773 5771 5769 5767 5765 5763 5761 5759 5756 5754 5751 5749 5747 5744 5742 5740 5738
5797 5797 5796 5796 5795 5795 5794 5793 5792 5792 5791 5790 5789 5788 5786 5785 5784 5782 5781 5779 5778 5776 5774 5773 5771 5770 5768 5767 5765 5763 5761 5759 5757 5754 5752 5749 5747 5744 5742 5739 5737 5735 5732
5793 5793 5792 5792 5791 5791 5790 5789 5789 5788 5787 5786 5784 5783 5782 5780 5779 5778 5776 5775 5773 5772 5770 5769 5767 5765 5764 5762 5760 5759 5757 5755 5752 5750 5747 5744 5742 5739 5737 5734 5732 5729 5727
5789 5788 5788 5787 5787 5786 5786 5785 5785 5784 5782 5781 5780 5778 5777 5776 5775 5774 5772 5771 5769 5767 5766 5764 5761 5760 5758 5757 5756 5754 5752 5750 5748 5745 5742 5739 5737 5734 5731 5729 5726 5724 5721
5785 5784 5783 5783 5782 5782 5781 5780 5780 5779 5777 5776 5775 5774 5772 5771 5770 5769 5768 5766 5764 5763 5761 5760 5758 5756 5754 5752 5751 5749 5747 5745 5743 5740 5737 5734 5732 5729 5726 5723 5721 5719 5716
5780 5779 5779 5778 5777 5777 5776 5775 5774 5773 5772 5771 5769 5768 5767 5766 5765 5764 5763 5761 5760 5758 5756 5755 5753 5751 5749 5747 5746 5743 5741 5739 5737 5735 5732 5729 5726 5723 5720 5718 5715 5713 5710
5775 5775 5774 5773 5772 5772 5771 5770 5769 5768 5766 5765 5764 5763 5762 5761 5760 5759 5758 5756 5754 5753 5751 5750 5748 5746 5744 5742 5740 5738 5736 5733 5731 5728 5726 5723 5720 5717 5714 5712 5709 5707 5705
5770 5770 5769 5768 5767 5766 5765 5764 5764 5763 5761 5760 5759 5758 5757 5756 5755 5754 5753 5751 5749 5748 5746 5744 5743 5741 5739 5737 5735 5732 5730 5727 5725 5722 5719 5717 5714 5711 5708 5706 5704 5701 5699
5765 5764 5764 5763 5762 5761 5760 5759 5758 5758 5756 5755 5754 5753 5752 5751 5750 5749 5747 5746 5744 5742 5741 5739 5737 5735 5733 5731 5729 5727 5724 5722 5719 5716 5713 5711 5708 5705 5703 5700 5698 5695 5693
5759 5759 5758 5758 5757 5756 5755 5755 5754 5753 5752 5750 5749 5748 5747 5746 5744 5743 5742 5740 5739 5737 5735 5733 5731 5729 5727 5726 5723 5721 5719 5716 5713 5711 5708 5705 5702 5700 5697 5695 5692 5690 5687
5753 5753 5752 5752 5752 5751 5750 5749 5749 5748 5747 5745 5743 5742 5741 5740 5739 5738 5736 5735 5733 5732 5730 5727 5726 5724 5722 5720 5718 5715 5713 5710 5707 5705 5702 5699 5697 5694 5691 5689 5686 5684 5681
5747 5747 5746 5746 5746 5745 5745 5744 5743 5742 5741 5739 5737 5736 5735 5734 5733 5732 5730 5729 5727 5725 5724 5721 5719 5718 5716 5714 5712 5709 5707 5704 5701 5699 5696 5693 5691 5688 5686 5683 5680 5677 5675
5740 5740 5740 5740 5740 5739 5739 5738 5737 5736 5735 5733 5732 5730 5729 5728 5727 5726 5725 5723 5721 5719 5717 5715 5713 5711 5710 5707 5705 5703 5700 5698 5695 5693 5690 5688 5685 5682 5680 5677 5674 5671 5668